, AK

(GMT )
Deadhorse

Weather History for PASC - July, 2013

Change the Weather History Date:

Thursday, July 4, 2013

  Actual Average Record
Temperature  
Mean Temperature 54 °F -  
Max Temperature 63 °F 51 °F 73 °F (1990)
Min Temperature 43 °F 36 °F 28 °F (1991)
Degree Days  
Heating Degree Days 12    
Growing Degree Days 4 (Base 50)    
Moisture  
Dew Point 47 °F    
Average Humidity 79    
Maximum Humidity 96    
Minimum Humidity 65    
Precipitation  
Precipitation 0.00 in - - ()
Sea Level Pressure  
Sea Level Pressure 29.83 in    
Wind  
Wind Speed 11 mph (East)    
Max Wind Speed 24 mph    
Max Gust Speed 26 mph    
Visibility 10 miles    
Events Rain    
Averages and records for this station are not official NWS values.
T = Trace of Precipitation, MM = Missing Value Source: NWS Daily Summary

Daily Weather History Graph

Daily Weather History Graph

Search for Another Location

Airport or City:

Trip Planner

Search our weather history database for the weather conditions in past years. The results will help you decide how hot, cold, wet, or windy it might be!

Date:

Astronomy

Dec. 31, 1969 Rise Set
Actual Time Sun does not rise Sun does not rise
Civil Twilight Sun does not rise Sun does not rise
Nautical Twilight Sun does not rise Sun does not rise
Astronomical Twilight Sun does not rise Sun does not rise
Moon 12:11 AM AKDT (7/4) No Moon Set
Length of Visible Light 24h 00m
Length of Day
24h 00m
Waning Crescent, 10% of the Moon is Illuminated
Jul 4
Waning Crescent
Jul 7
New
Jul 15
First Quarter
Jul 22
Full
Jul 29
Last Quarter

Hourly Weather History & Observations

Time (AKDT) Temp. Windchill Dew Point Humidity Pressure Visibility Wind Dir Wind Speed Gust Speed Precip Events Conditions
12:53 AM 57.9 °F - 51.1 °F 78% 29.81 in 10.0 mi East 10.4 mph - N/A   Mostly Cloudy
1:53 AM 57.9 °F - 53.1 °F 84% 29.82 in 10.0 mi East 10.4 mph - 0.00 in   Mostly Cloudy
2:53 AM 57.9 °F - 50.0 °F 75% 29.83 in 10.0 mi East 12.7 mph - N/A   Mostly Cloudy
3:53 AM 55.9 °F - 50.0 °F 80% 29.83 in 10.0 mi SE 8.1 mph - N/A   Mostly Cloudy
4:53 AM 57.0 °F - 48.0 °F 72% 29.83 in 10.0 mi ESE 8.1 mph - N/A   Mostly Cloudy
5:53 AM 57.0 °F - 50.0 °F 77% 29.83 in 10.0 mi SSE 8.1 mph - N/A   Mostly Cloudy
6:53 AM 57.9 °F - 50.0 °F 75% 29.84 in 10.0 mi Calm Calm - N/A   Mostly Cloudy
7:53 AM 52.0 °F - 46.0 °F 80% 29.85 in 10.0 mi NE 11.5 mph - N/A   Overcast
8:53 AM 50.0 °F - 48.0 °F 93% 29.85 in 10.0 mi ENE 13.8 mph - 0.00 in Rain Light Rain
9:20 AM 50.0 °F - 48.2 °F 94% 29.84 in 10.0 mi East 9.2 mph - 0.00 in   Overcast
9:53 AM 48.9 °F - 46.9 °F 93% 29.84 in 10.0 mi East 12.7 mph - 0.00 in   Overcast
10:53 AM 48.0 °F - 46.9 °F 96% 29.85 in 10.0 mi East 6.9 mph - 0.00 in   Overcast
11:53 AM 50.0 °F - 48.0 °F 93% 29.85 in 10.0 mi East 6.9 mph - 0.00 in   Overcast
12:53 PM 59.0 °F - 52.0 °F 78% 29.84 in 10.0 mi ENE 11.5 mph - N/A   Mostly Cloudy
1:53 PM 61.0 °F - 52.0 °F 72% 29.84 in 10.0 mi ENE 12.7 mph - N/A   Overcast
2:53 PM 62.1 °F - 50.0 °F 65% 29.83 in 10.0 mi ENE 17.3 mph - N/A   Mostly Cloudy
3:53 PM 60.1 °F - 48.9 °F 67% 29.83 in 10.0 mi ENE 18.4 mph - N/A   Mostly Cloudy
4:53 PM 59.0 °F - 48.0 °F 67% 29.82 in 10.0 mi East 24.2 mph - N/A   Mostly Cloudy
5:53 PM 55.0 °F - 46.9 °F 74% 29.82 in 10.0 mi East 18.4 mph 26.5 mph N/A   Clear
6:53 PM 52.0 °F - 45.0 °F 77% 29.83 in 10.0 mi ENE 16.1 mph - N/A   Scattered Clouds
7:53 PM 52.0 °F - 44.1 °F 74% 29.81 in 10.0 mi East 17.3 mph - N/A   Mostly Cloudy
8:53 PM 48.0 °F - 41.0 °F 77% 29.81 in 10.0 mi East 13.8 mph - N/A   Overcast
9:53 PM 46.9 °F - 39.9 °F 77% 29.81 in 10.0 mi ENE 13.8 mph - N/A   Mostly Cloudy
10:53 PM 45.0 °F 38.5 °F 39.0 °F 80% 29.81 in 10.0 mi East 13.8 mph - N/A   Mostly Cloudy
11:53 PM 43.0 °F 36.0 °F 36.0 °F 76% 29.82 in 10.0 mi ENE 13.8 mph - N/A   Mostly Cloudy